User: anonymous   Login
Location: Palomar Mountain Lodge
(33.3110°N, 116.8495°W)
Time: 21:16:00
(UTC-08:00)
Language:

USA 267 - Orbit

View from above orbital plane
View from above orbital plane
View from above satellite
View from above satellite

Ground track
Ground track

The orbit data is extracted from the following two-line orbital elements,

1 41334U 16010A   18047.78993510 0.00000000  00000-0  00000-0 0    08
2 41334 122.9819 124.4278 0005000 140.0926 219.9073 13.41390327    08
Epoch (UTC): 16 February 2018 18:57:30
Eccentricity: 0.0005000
inclination: 122.9819°
perigee height: 1100 km
apogee height: 1108 km
right ascension of ascending node: 124.4278°
argument of perigee: 140.0926°
revolutions per day: 13.41390327
mean anomaly at epoch: 219.9073°
orbit number at epoch: 0

The dashed part of the orbit path shows where the satellite is in the earth's shadow,  

DLR